Regional Weather Roundup
Issued by NWS

Home | Current Version | Previous Version | Graphics & Text | Print | Product List | Glossary On
Versions: 1 2 3 4 5 6 7 8 9 10 11 12 13 14 15 16 17 18 19 20 21 22 23 24 25 26 27
000
ASUS45 KBOI 230610
RWRID

IDAHO REGIONAL WEATHER ROUNDUP
NATIONAL WEATHER SERVICE BOISE ID
1200 AM MDT SAT JUL 23 2016

NOTE: "FAIR" INDICATES FEW OR NO CLOUDS BELOW 12000 FEET
WITH NO SIGNIFICANT WEATHER AND/OR OBSTRUCTIONS TO VISIBILITY

IDZ012-014-230700-
SOUTHWEST IDAHO


CITY           SKY/WX    TMP DP  RH WIND       PRES   REMARKS
BOISE          CLEAR     75  42  30 NW10      30.08R
CALDWELL       NOT AVBL
MOUNTAIN HOME  CLEAR     72  36  27 W13       30.07R
$$

IDZ016-017-230700-
SOUTHCENTRAL IDAHO


CITY           SKY/WX    TMP DP  RH WIND       PRES   REMARKS
BURLEY         CLEAR     64  44  48 W8        30.11S
JEROME         CLEAR     68  40  35 S5        30.12S
TWIN FALLS     CLEAR     67  36  31 SW12      30.13S
$$

IDZ019>023-230700-
SOUTHEAST IDAHO


CITY           SKY/WX    TMP DP  RH WIND       PRES   REMARKS
IDAHO FALLS    CLEAR     64  36  35 SW13      30.10R
POCATELLO      CLEAR     69  31  24 S10       30.13R
REXBURG        CLEAR     67  30  25 S14       30.07S
$$

IDZ006-010-011-018-031-032-230700-
CENTRAL IDAHO MOUNTAINS


CITY           SKY/WX    TMP DP  RH WIND       PRES   REMARKS
MCCALL         CLEAR     62  42  47 N6        30.24R
HAILEY         CLEAR     63  32  31 NW6       30.20R
STANLEY          N/A     51  34  52 S3        30.29S
SALMON         CLEAR     68  43  40 NE13      30.11R
CHALLIS        CLEAR     69  34  27 W8        30.17R
$$

IDZ002-004-006-007-026-230700-
NORTHERN IDAHO


CITY           SKY/WX    TMP DP  RH WIND       PRES   REMARKS
LEWISTON       CLEAR     72  46  39 SW8       30.13R
LOWELL           N/A     62  53  72 CALM      30.16R
COEUR D`ALENE  CLEAR     55  52  88 CALM      30.13S
MULLAN PASS    CLEAR     46  44  93 W8        30.25S
$$




USA.gov is the U.S. government's official web portal to all federal, state and local government web resources and services.